SCP
0 0 0 0 0 1 1 1 0 0 0 0 0 0 0 0 0 0 0 0 0 0 0 0 0 0 0 0 0 0 0 0 0 0 0 0 0 0 0 0 0 0 0
0 0 0 0 0 1 1 1 1 1 0 0 0 0 0 0 0 0 0 0 0 0 0 0 0 0 0 0 0 0 0 0 0 0 0 0 0 0 0 0 1 1 0
0 1 0 0 1 1 1 1 1 1 1 0 0 0 0 0 0 0 0 0 0 0 0 0 0 0 0 0 0 0 0 0 0 0 0 0 0 0 0 0 0 1 1
1 1 1 1 1 1 1 1 1 1 1 0 0 0 0 0 0 0 0 0 0 0 0 0 0 0 0 0 0 0 0 0 0 0 0 0 0 0 0 0 0 1 1
1 1 1 1 1 1 1 1 1 1 1 1 0 0 0 0 0 0 0 0 0 0 0 0 0 0 0 0 0 0 1 1 0 0 0 0 1 1 1 0 0 0 1
1 1 1 1 1 1 1 1 1 1 1 1 1 0 0 0 0 0 0 0 0 0 1 1 1 1 1 1 1 1 1 1 1 1 1 1 1 1 1 0 0 0 1
1 1 1 1 1 1 1 1 1 1 1 1 1 1 1 0 0 0 0 0 0 0 1 1 1 1 1 1 1 1 1 1 1 1 1 1 1 1 1 1 1 1 1
0 1 1 1 1 1 1 1 1 1 1 1 1 1 1 1 1 1 1 0 0 0 1 1 1 1 1 1 1 1 1 1 1 1 1 1 1 1 1 1 1 1 1
0 1 1 1 1 1 1 1 1 2 1 1 1 1 1 1 1 1 1 1 0 1 1 1 1 1 1 1 1 1 1 1 1 1 1 1 1 1 1 1 1 1 1
0 0 1 1 1 1 1 1 1 2 2 1 1 1 1 1 1 1 1 1 1 1 1 1 1 1 1 1 1 1 1 0 0 0 0 0 1 1 1 1 1 1 1
0 1 1 1 1 1 1 1 1 2 2 1 1 1 1 1 1 1 1 1 1 1 1 1 1 1 1 1 1 1 1 0 0 0 0 0 0 0 0 1 1 1 1
1 1 1 1 1 1 1 1 1 1 1 1 1 1 1 1 1 1 1 1 1 1 1 1 1 1 1 1 1 1 0 0 0 0 0 0 0 0 0 0 0 1 1
1 1 1 1 1 1 1 1 1 1 1 1 1 1 1 1 1 1 1 1 1 1 1 1 1 1 1 1 1 1 0 0 0 0 0 0 0 0 0 0 0 0 0
1 1 1 1 1 1 1 1 1 1 1 1 1 1 1 1 1 1 1 1 1 1 1 1 1 1 1 1 1 1 1 0 0 0 0 0 0 0 0 0 0 0 0
1 1 1 1 1 1 1 1 1 1 1 1 1 1 1 1 1 1 1 1 1 1 1 1 1 1 1 0 0 1 1 0 0 0 0 0 0 0 0 0 0 0 0
1 1 1 1 1 1 1 1 1 1 2 2 2 2 2 2 1 1 1 1 1 1 1 1 1 1 1 0 0 0 0 0 0 0 0 0 0 0 0 0 0 0 0
1 1 1 1 1 1 1 1 1 1 2 2 2 2 2 2 2 1 2 2 2 1 1 1 1 1 1 0 0 0 0 0 0 0 0 0 0 0 0 0 0 0 0
1 1 1 1 1 1 1 1 1 1 2 2 2 2 2 2 2 2 2 2 2 2 1 1 1 1 1 0 0 0 0 0 0 0 0 0 0 0 0 1 1 1 1
1 1 1 1 1 1 1 1 2 2 2 2 2 2 2 2 2 2 2 2 2 2 1 1 1 1 1 0 0 0 0 0 0 0 0 0 0 0 0 1 1 1 1
1 1 1 2 2 2 2 2 2 2 2 2 2 2 2 2 2 2 2 2 2 2 1 1 1 1 1 0 0 0 0 0 0 0 0 0 0 0 0 0 1 1 1
1 1 2 2 2 2 2 2 2 2 2 2 2 2 2 2 2 2 2 2 2 2 2 1 1 1 1 0 0 0 0 0 0 0 0 0 0 0 0 0 0 1 1
1 1 2 2 2 2 2 2 2 2 2 2 2 2 2 2 2 2 2 2 2 2 1 1 1 1 1 1 0 0 0 0 0 1 1 0 0 0 0 0 0 0 0
1 1 2 2 2 2 2 2 2 2 2 2 2 2 2 2 2 2 2 2 1 1 1 1 1 1 1 1 1 0 0 0 0 0 0 0 0 0 0 0 0 0 0
1 1 1 2 2 2 2 2 2 2 2 2 2 2 2 2 2 2 1 1 1 1 1 1 1 1 1 1 1 1 1 0 0 0 0 0 0 0 0 0 0 0 0
1 1 1 1 2 2 2 2 2 2 2 2 2 2 2 2 2 1 1 1 1 1 1 1 1 1 1 1 1 1 1 1 0 0 0 1 1 0 0 0 0 0 0
1 1 1 1 2 2 2 2 2 2 2 2 2 2 2 2 2 1 1 1 1 1 1 1 1 1 1 0 0 0 1 1 0 1 1 1 1 1 1 1 1 0 0
Wind_Speed
12 12 11 11 10 9 8 6 5 4 3 2 2 2 2 1 1 2 3 2 1 1 0 1 1 0 1 1 1 1 2 1 0 0 1 2 2 2 2 2 2 2 2
12 12 11 10 10 9 8 7 6 5 4 3 1 1 1 1 2 2 3 2 1 1 1 0 1 0 0 0 0 1 1 2 1 1 1 1 1 1 2 2 2 2 2
13 12 11 10 10 10 9 7 6 5 4 3 2 1 1 1 1 2 2 2 2 1 0 0 1 1 0 0 1 1 2 2 2 1 1 1 1 1 1 1 1 1 1
13 13 13 11 11 10 10 7 6 5 4 4 3 3 3 2 2 1 2 2 2 1 1 1 1 1 1 0 1 0 2 2 2 1 1 1 1 1 1 1 1 0 0
13 13 13 12 11 11 10 8 7 6 5 4 3 3 2 2 2 2 2 2 2 2 1 1 1 1 1 1 1 1 2 2 2 2 2 2 2 2 2 2 1 1 1
13 13 12 12 10 11 10 10 8 6 6 5 4 3 3 2 1 1 2 2 2 2 2 2 1 1 1 1 1 1 2 2 2 2 2 1 1 2 1 2 2 1 1
12 12 13 12 11 10 10 9 9 7 7 6 5 4 3 3 2 2 2 2 1 2 2 2 1 1 1 1 1 2 2 1 1 2 2 2 2 2 2 1 2 1 1
12 12 12 12 11 11 9 9 9 8 7 6 5 4 4 3 3 4 2 2 1 1 2 2 2 2 2 2 1 1 1 1 2 3 2 2 2 2 1 1 1 2 1
11 12 12 12 11 11 10 10 9 8 7 7 6 5 4 4 3 2 2 2 1 1 2 2 1 1 1 1 1 1 1 1 1 2 2 2 2 2 2 1 1 1 2
7 10 11 10 10 10 9 9 9 9 7 6 6 5 5 4 3 2 2 2 1 1 0 1 1 1 1 1 1 1 1 1 1 1 2 3 2 2 2 2 1 1 2
7 7 8 9 9 9 9 9 9 8 7 6 5 4 5 5 4 3 3 2 2 2 1 1 1 1 1 1 1 1 1 1 1 2 2 2 3 2 2 2 1 1 1
7 7 7 7 7 8 8 8 8 8 7 6 6 5 4 4 4 4 3 3 3 2 2 1 1 2 1 1 1 2 1 1 2 2 2 2 2 2 2 2 2 2 1
7 7 6 5 5 6 6 7 7 7 7 7 6 5 5 4 4 4 3 2 2 2 2 2 1 1 1 1 1 1 1 1 1 1 2 2 2 3 2 2 2 2 2
6 6 5 4 4 4 4 5 6 6 7 7 6 6 5 4 4 3 3 3 2 2 2 2 2 2 1 1 1 1 1 1 1 1 2 2 2 3 3 2 2 2 2
5 5 5 4 3 3 3 4 5 5 5 6 6 5 5 4 4 3 3 3 3 3 2 2 2 2 2 1 1 2 2 1 1 1 1 1 2 2 2 2 2 2 2
4 4 5 4 3 3 3 3 4 4 4 5 4 4 4 4 4 3 3 3 3 2 2 2 2 1 1 1 2 2 1 1 1 2 2 1 1 1 1 1 1 1 1
2 3 4 4 4 3 3 3 4 4 4 4 4 4 4 4 4 4 3 3 3 2 2 2 1 1 0 1 1 2 2 1 2 2 3 3 1 1 2 2 2 3 3
3 2 1 3 3 3 3 3 4 4 4 4 4 4 4 4 3 3 3 3 2 2 2 2 1 1 1 1 0 2 2 2 2 2 3 2 1 3 3 2 2 2 2
3 2 1 2 2 2 2 2 3 4 4 4 4 4 4 4 4 4 3 3 3 2 2 2 2 2 2 2 1 1 2 2 2 2 2 1 2 2 3 2 2 2 3
4 3 2 2 2 2 2 2 3 3 4 4 4 4 4 4 4 4 3 3 3 3 3 2 3 3 3 3 3 2 3 3 2 1 1 1 1 2 1 2 3 3 3
4 4 3 3 2 1 1 2 2 2 3 3 3 3 4 4 4 3 3 3 3 3 3 3 2 2 3 3 4 4 3 3 3 2 1 1 1 2 3 4 3 4 4
4 4 3 3 2 2 2 1 1 0 1 2 3 3 3 4 4 3 3 3 3 3 3 2 2 2 3 3 4 4 5 4 3 2 1 1 1 3 5 4 5 6 4
3 3 3 3 2 2 1 0 0 1 1 2 2 2 3 3 3 3 3 3 3 4 3 3 4 3 3 3 4 5 5 4 3 2 2 2 3 4 4 7 7 5 3
3 3 3 3 3 2 1 1 1 2 2 2 2 2 3 4 3 3 4 4 4 4 4 3 3 3 2 2 2 3 3 3 3 3 3 4 5 5 5 4 3 3 3
2 2 2 2 2 2 2 2 1 1 2 2 2 3 3 3 3 3 2 4 4 4 4 3 3 3 3 3 4 4 3 3 3 3 3 3 3 3 3 2 2 2 2
1 1 2 2 2 2 3 3 2 1 2 2 2 3 3 2 3 3 2 2 1 3 3 4 3 2 3 4 4 3 3 2 2 2 3 3 3 2 2 2 2 2 1
Wind_Direction
161 157 156 151 149 146 147 150 156 151 152 166 180 169 162 167 144 142 129 140 143 154 216 341 89 305 73 48 27 355 315 285 281 346 294 270 222 197 193 200 199 195 184
162 157 158 158 155 151 150 154 163 161 171 170 188 184 172 184 167 130 135 162 158 206 197 188 318 12 77 248 275 301 302 302 308 277 284 290 297 312 223 195 201 196 186
162 159 165 165 161 159 158 161 161 161 178 165 188 203 170 234 144 144 154 181 186 193 334 334 305 319 248 199 239 292 294 298 306 301 300 294 311 313 279 259 208 167 123
163 165 168 169 168 163 160 155 156 163 172 176 197 202 190 192 179 182 151 173 189 192 188 233 267 298 304 269 266 66 292 292 294 295 258 243 237 246 285 284 267 180 129
166 168 170 167 168 165 162 159 157 164 167 185 192 205 210 200 183 167 157 186 189 200 203 196 188 263 291 298 310 321 298 296 299 302 299 288 263 245 239 272 275 266 203
166 165 164 161 168 168 166 163 159 165 169 181 190 197 218 216 196 187 180 200 196 198 197 196 188 215 257 277 282 285 282 285 303 305 303 299 300 292 272 274 278 273 259
161 163 164 165 169 170 167 162 160 168 174 180 190 192 206 209 205 222 216 222 206 183 188 195 174 202 249 263 267 278 294 300 302 289 290 296 290 290 289 280 288 295 277
162 166 167 167 170 171 167 164 161 170 177 182 190 190 196 206 215 215 233 231 236 184 168 181 175 202 241 264 250 265 286 311 295 292 299 299 300 301 287 283 286 294 297
164 164 168 169 170 172 170 171 163 168 176 183 185 186 193 209 228 211 220 236 250 224 167 177 184 210 234 261 277 292 313 326 307 311 306 297 292 292 310 310 292 275 288
160 162 165 164 168 170 169 168 164 169 175 183 188 186 190 200 221 222 211 216 229 284 211 182 189 208 223 239 243 285 290 291 311 312 327 323 317 327 322 311 313 295 271
166 157 153 159 163 166 167 163 165 165 171 181 184 189 181 191 201 204 203 209 219 233 216 217 220 224 218 216 232 245 282 292 296 299 306 308 316 323 318 318 313 299 283
151 145 145 150 158 164 167 163 167 169 174 179 179 189 186 185 194 196 200 202 210 215 219 221 225 236 223 215 228 256 275 271 280 285 299 307 305 311 312 317 313 307 292
132 133 136 140 154 162 161 164 170 173 177 181 184 184 194 192 193 193 190 198 206 215 219 221 227 234 234 226 231 246 269 278 293 306 304 306 315 315 309 300 305 303 310
119 126 127 133 140 151 153 161 170 177 175 175 183 185 191 191 189 191 190 193 198 202 206 220 227 229 223 237 239 222 241 277 289 314 319 321 322 318 308 295 303 311 322
126 129 132 131 140 149 156 163 170 169 171 171 181 183 181 181 184 190 190 188 203 212 200 207 216 230 222 239 261 246 220 239 282 297 301 336 7 359 330 323 329 331 328
138 140 140 141 147 152 164 173 164 161 161 170 180 172 174 180 183 190 187 193 201 203 200 205 221 239 250 39 31 332 282 249 262 280 289 250 251 336 311 286 287 296 296
121 146 157 156 162 165 165 179 169 162 166 173 178 170 174 183 187 196 191 198 199 198 209 208 193 177 87 58 39 348 281 276 277 282 283 287 302 304 280 264 238 243 250
59 68 145 158 163 169 169 176 179 167 172 179 183 174 177 187 186 195 197 192 190 195 200 205 203 186 204 201 336 320 257 263 268 281 294 302 309 314 321 290 279 264 267
49 58 61 125 126 152 155 158 177 174 180 185 184 180 181 186 191 194 192 187 185 192 202 193 197 195 195 200 219 279 260 258 263 261 295 312 316 333 335 297 288 288 281
38 37 54 76 82 97 138 162 186 182 184 187 183 183 184 190 193 194 192 193 188 198 214 207 199 202 198 205 216 239 261 262 262 251 257 341 313 320 318 287 279 276 287
47 44 46 65 80 76 116 150 169 188 189 180 174 181 186 194 193 185 185 182 197 207 218 215 210 207 196 202 216 225 249 270 270 262 275 310 296 268 269 272 267 267 284
48 40 42 54 75 85 100 103 133 152 168 171 178 183 185 209 197 175 185 198 212 210 214 218 222 221 198 193 203 208 227 266 277 277 281 316 311 273 267 266 273 280 287
38 24 29 37 52 77 75 30 177 173 196 186 187 189 192 205 187 182 199 211 213 221 223 220 226 227 209 192 201 208 220 237 253 280 279 269 261 272 265 258 267 273 270
28 21 20 21 26 27 323 270 246 192 211 211 202 202 207 206 190 188 203 217 220 224 221 219 222 223 211 205 196 207 217 226 243 262 264 250 250 259 264 270 253 243 253
18 15 1 358 7 357 333 307 305 255 238 240 227 222 224 209 194 204 211 218 223 229 220 226 226 220 224 222 212 213 218 222 225 233 245 248 245 242 249 251 247 246 250
350 345 334 333 335 337 339 338 332 305 266 249 242 241 235 212 212 214 238 350 266 223 209 211 218 224 207 192 190 199 202 211 205 224 253 253 251 250 241 245 255 250 250